Regional Weather Roundup
Issued by NWS

Home | Current Version | Previous Version | Graphics & Text | Print | Product List | Glossary On
Versions: 1 2 3 4 5 6 7 8 9 10 11 12 13 14 15 16 17 18 19 20 21 22 23 24 25 26 27 28 29 30 31 32 33 34 35 36 37 38 39 40 41 42 43 44 45 46 47 48 49 50
177
ASUS45 KBOU 261910
RWRCO

WEATHER ROUNDUP FOR COLORADO
NATIONAL WEATHER SERVICE DENVER/BOULDER CO
100 PM MDT THU APR 26 2018

NOTE: "FAIR" INDICATES FEW OR NO CLOUDS BELOW 12000 FEET WITH NO
SIGNIFICANT WEATHER AND/OR OBSTRUCTIONS TO VISIBILITY.

COZ001>005-013-030-031-262000-
...NORTHWEST COLORADO...

CITY           SKY/WX    TMP DP  RH WIND       PRES   REMARKS
CRAIG          FAIR      59  18  20 NW12G23   30.28F
HAYDEN         FAIR      54  24  31 W9        30.30F
MEEKER         FAIR      58  25  28 NE14G22   30.28F
RANGELY        FAIR      62  28  27 E13G21    30.26F
RABBIT EARS PA FAIR      37  14  38 NW6       30.37S
STEAMBOAT SPGS FAIR      53  18  25 N5        30.28F
WALDEN         FAIR      48  18  29 NW7       30.33F
$$

COZ006>008-011-262000-
...WEST CENTRAL VALLEYS...

CITY           SKY/WX    TMP DP  RH WIND       PRES   REMARKS
GRAND JUNCTION FAIR      70  21  15 NE12G21   30.18F
MONTROSE       FAIR      63  12  13 N10G17    30.22F
EAGLE          FAIR      60  16  18 VRB6G16   30.25F
RIFLE          FAIR      65  22  19 NW17      30.22F
DELTA          FAIR      70  16  12 SW15      30.19F
NUCLA          FAIR      68   9  10 NW7G16    30.22F
$$

COZ017>023-064>068-262000-
...SOUTHWEST COLORADO...

CITY           SKY/WX    TMP DP  RH WIND       PRES   REMARKS
DURANGO        FAIR      67   6   9 VRB3      30.11F
CORTEZ         FAIR      72  10   9 N14G22    30.13F
PAGOSA SPRINGS FAIR      66  -4   6 N8G18     30.18F
TELLURIDE      FAIR      54   5  13 CALM      30.31F
WOLF CREEK PAS FAIR      37   5  25 N9G18     30.42R
$$

COZ009-010-012-014-032>034-037-058>063-262000-
...CENTRAL COLORADO...

CITY           SKY/WX    TMP DP  RH WIND       PRES   REMARKS
ASPEN          FAIR      55  17  22 NW8G17    30.25F
BUENA VISTA    FAIR      57   8  13 NW17G24   30.22F
COPPER MTN     NOT AVBL
BERTHOUD PASS  FAIR      27  16  63 NW8G25    30.39R WCI  18
COTTONWOOD PAS FAIR      57  10  15 CALM      30.30S
GUNNISON       FAIR      58  10  15 N10G16    30.23F
GRANBY         FAIR      50  16  26 CALM      30.30F
KREMMLING      FAIR      59  18  20 N7        30.29F
LEADVILLE      FAIR      45  14  28 NW9G22    30.30S
MONARCH PASS   FAIR      36  10  35 CALM      30.48S
SALIDA         FAIR      62  10  12 N8        30.29S
SUNLIGHT       FAIR      37  14  38 CALM      30.42S
WILKERSON PASS SNOW      28  25  86 SE9       30.38R VSB 1/4 WCI  20
$$

COZ069>075-262000-
...SAN LUIS VALLEY/SANGRE DE CRISTO MOUNTAINS...

CITY           SKY/WX    TMP DP  RH WIND       PRES   REMARKS
ALAMOSA        FAIR      62   5  10 N15G29    30.19F
DEL NORTE      FAIR      60   6  12 NE8G21    30.22S
LA VETA PASS   PTSUNNY   41  27  56 NE13G31   30.44R
SAGUACHE       NOT AVBL
$$

COZ035-036-038>040-262000-
...NORTHERN COLORADO FRONT RANGE...

CITY           SKY/WX    TMP DP  RH WIND       PRES   REMARKS
DENVER INTL AP PTSUNNY   56  26  31 N18G32    30.28F
AURORA         CLOUDY    54  24  31 N12       30.29F
FRONT RANGE AP PTSUNNY   55  25  30 N22G28    30.29F
ERIE MUNI ARPT CLOUDY    55  21  26 N10G17    30.34S
BOULDER MUN AP CLOUDY    54  25  32 N5        30.29S
CENTENNIAL     PTSUNNY   49  26  41 N9        30.30F
BROOMFIELD     CLOUDY    52  25  35 N14       30.30F
FORT COLLINS   FAIR      58  25  28 N12       30.28F
LONGMONT       FAIR      61  25  25 NE10G18   30.29F
$$

COZ041-046-047-076>085-087-088-262000-
...PIKES PEAK/PALMER DIVIDE AND SOUTHERN FOOTHILLS...

CITY           SKY/WX    TMP DP  RH WIND       PRES   REMARKS
COLO. SPRINGS  FAIR      50  30  46 N24G35    30.30S
A. F. ACADEMY  PTSUNNY   46  29  53 N18G26    30.30F
SCHRIEVER AFB  NOT AVBL
CHEYENNE MTN   PTSUNNY   43  27  53 N20G26    30.24F
ELLICOTT         N/A    N/A N/A N/A N25G40    30.27R
FALCON         CLOUDY    45  28  51 N21G30    30.32S
FORT CARSON    FAIR      53  30  41 N29G38    30.24S
LIMON          CLOUDY    53  25  33 N22G29    30.26S
MONUMENT HILL  CLOUDY    37  30  75 N15       30.33F
CANON CITY     FAIR      61  32  33 E8G17     30.20S
WALSENBURG     NOT AVBL
TRINIDAD       CLOUDY    54  28  36 NE22G30   30.25S
$$

COZ042>045-048>051-090-091-262000-
...NORTHEAST COLORADO...

CITY           SKY/WX    TMP DP  RH WIND       PRES   REMARKS
GREELEY ARPT   FAIR      58  24  27 N12       30.28F
AKRON          PTSUNNY   56  30  37 N15G26    30.25F
BURLINGTON     FAIR      59  30  33 N28G43    30.18
WRAY           FAIR      63  28  27 N29G37    30.20F
YUMA           MOCLDY    54  23  30 N23G31    30.22F
STERLING       NOT AVBL
HOLYOKE        FAIR      63  30  29 N26G36    30.21S
FORT MORGAN    PTSUNNY   56  24  28 N17G28    30.28S
$$

COZ086-089-092>099-262000-
...SOUTHEAST COLORADO...

CITY           SKY/WX    TMP DP  RH WIND       PRES   REMARKS
PUEBLO         FAIR      61  29  29 N31G46    30.21F
LA JUNTA       FAIR      62  26  25 N28G41    30.20S
LAMAR          FAIR      65  27  23 N32G44    30.13S
SPRINGFIELD      N/A     63  29  27 N36G47    30.12S
$$




USA.gov is the U.S. government's official web portal to all federal, state and local government web resources and services.